Miscellaneous Local Product
Issued by NWS Hastings, NE

Home | Current Version | Previous Version | Graphics & Text | Print | Product List | Glossary On
Versions: 1 2 3 4 5 6 7 8 9 10 11 12 13 14 15 16 17 18 19 20 21 22 23 24 25 26 27 28 29 30 31 32 33 34 35 36 37 38 39 40 41 42 43 44 45 46 47 48 49 50
280
AXUS43 KGID 221002
MISGRI

GID CWA HOURLY WEATHER ROUNDUP
NATIONAL WEATHER SERVICE HASTINGS NE
500 AM CDT MON MAY 22 2017

NOTE: "FAIR" INDICATES FEW OR NO CLOUDS BELOW 12,000 FEET WITH NO
SIGNIFICANT WEATHER AND/OR OBSTRUCTIONS TO VISIBILITY.

...SOUTH CENTRAL NEBRASKA...

CITY           SKY/WX    TMP DP  RH WIND       PRES   REMARKS
GRAND ISLAND   MOCLDY    56  48  74 W13       30.03F
HASTINGS       MOCLDY    55  48  77 W9        30.04F
KEARNEY        PTCLDY    55  45  67 W9        30.05F
ORD            CLEAR     44  41  89 SW7       30.02S
YORK           CLOUDY    55  48  76 W10       30.02S
AURORA         CLOUDY    54  48  81 W7        30.02S
LEXINGTON      CLOUDY    50  46  87 W7        30.07F
HOLDREGE       CLOUDY    53  47  80 W12       30.07S
HEBRON         LGT RAIN  57  53  84 SW9       30.03F

...NEBRASKA PANHANDLE...

CITY           SKY/WX    TMP DP  RH WIND       PRES   REMARKS
CHADRON        CLEAR     40  37  89 SW7       30.07F
ALLIANCE       CLEAR     38  36  92 W9        30.10F WCI  31
SCOTTSBLUFF    CLEAR     39  32  76 NW6       30.13F WCI  35
SIDNEY         CLEAR     39  37  92 W7        30.14F WCI  34

...WESTERN AND NORTH CENTRAL NEBRASKA...

CITY           SKY/WX    TMP DP  RH WIND       PRES   REMARKS
VALENTINE      CLEAR     43  39  86 W8        30.02S
AINSWORTH      CLEAR     45  42  91 W10       30.01F
ONEILL         CLEAR     49  43  79 W9        29.98F
BROKEN BOW     CLOUDY    49  43  80 W10       30.04F
IMPERIAL       CLOUDY    49  44  83 W8        30.12S
NORTH PLATTE   CLOUDY    40  39  97 NW6       30.07F
MCCOOK         CLOUDY    52  50  93 W6        30.09F

...EASTERN NEBRASKA...

CITY           SKY/WX    TMP DP  RH WIND       PRES   REMARKS
NORFOLK        CLEAR     49  42  77 SW8       29.96S
SO SIOUX CITY  CLOUDY    54  45  71 W12       29.94F
TEKAMAH        CLOUDY    53  44  71 W5        29.96F
COLUMBUS       CLEAR     52  43  71 W9        29.99S
ALBION         CLEAR     50  44  78 NW5       30.00F
OMAHA EPPLEY   PTCLDY    51  44  77 SE12      29.98F
OFFUTT AFB     PTCLDY    52  43  73 VRB5      30.00F
MILLARD        PTCLDY    56  46  69 CALM      29.98F
LINCOLN        PTCLDY    57  50  77 SW12      30.02S
NEBRASKA CITY  CLOUDY    54  41  62 SW12      30.01F
BEATRICE       LGT RAIN  58  53  83 SW14      30.04S
FALLS CITY     PTCLDY    54  46  74 S10       30.02F

...NORTHERN KANSAS...

CITY           SKY/WX    TMP DP  RH WIND       PRES   REMARKS
GOODLAND       CLOUDY    50  49  96 W5        30.11F
HILL CITY      LGT RAIN  56  54  93 NW15      30.09F FOG
NORTON         PTSUNNY   54  48  82 W8        30.08F
PHILLIPSBURG   LGT RAIN  55  55 100 S5        30.07F
SMITH CENTER   CLOUDY    54  52  94 SW6       30.07F
HAYS           CLOUDY    54  49  83 NW3       30.09F
RUSSELL        PTCLDY    53  49  86 NW6       30.09S
CONCORDIA      MOCLDY    55  53  93 SW6       30.07F
SALINA         CLOUDY    56  51  84 CALM      30.08S
TOPEKA         CLOUDY    55  50  83 SW3       30.07S



USA.gov is the U.S. government's official web portal to all federal, state and local government web resources and services.